Hourly Data Report for November 28, 2021

NANAIMO A
BRITISH COLUMBIA
Current Station Operator: NAVCAN

49°03'16.000" N
123°52'12.000" W
28.00 m
1025365
YCD

Download Data

Hourly Data (November 2021)
Hourly Data Report for November 28, 2021
TIME
LST
Temp Definition
°C
Dew Point Definition
°C
Rel Hum Definition
%
Precip. Amount Definition
mm

Wind Dir Definition
10's deg

Wind Spd Definition
km/h
Visibility Definition
km
Stn Press Definition
kPa
Hmdx Definition


Wind Chill Definition


Weather Definition


00:00 8.7 8.7 100 LegendMM 34 4 LegendMM 100.73     LegendNANA
01:00 8.5 8.5 100 LegendMM 5 2 LegendMM 100.86     LegendNANA
02:00 8.1 8.1 100 LegendMM 1 5 LegendMM 100.91     LegendNANA
03:00 7.9 7.9 100 LegendMM 19 2 LegendMM 100.94     LegendNANA
04:00 8.3 8.3 100 LegendMM 15 11 LegendMM 100.92     LegendNANA
05:00 8.4 8.4 100 LegendMM 32 6 LegendMM 100.93     LegendNANA
06:00 8.4 8.4 100 LegendMM 32 2 LegendMM 100.99     LegendNANA
07:00 8.3 8.3 100 LegendMM 30 3 LegendMM 100.97     LegendNANA
08:00 8.1 8.1 100 LegendMM 27 1 LegendMM 101.04     LegendNANA
09:00 8.1 8.1 100 LegendMM 20 3 LegendMM 101.08     LegendNANA
10:00 8.3 8.3 100 LegendMM 20 5 LegendMM 101.16     LegendNANA
11:00 8.9 8.9 100 LegendMM 25 3 LegendMM 101.21     LegendNANA
12:00 10.2 10.2 100 LegendMM 0 1 LegendMM 101.23     LegendNANA
13:00 10.6 10.6 100 LegendMM 18 4 LegendMM 101.21     LegendNANA
14:00 11.5 11.5 100 LegendMM 7 4 LegendMM 101.26     LegendNANA
15:00 12.5 12.5 100 LegendMM 16 2 LegendMM 101.26     LegendNANA
16:00 11.3 11.3 100 LegendMM 21 4 LegendMM 101.33     LegendNANA
17:00 10.1 10.1 100 LegendMM 18 4 LegendMM 101.38     LegendNANA
18:00 10.1 10.1 100 LegendMM 33 3 LegendMM 101.42     LegendNANA
19:00 9.7 9.7 100 LegendMM 20 7 LegendMM 101.48     LegendNANA
20:00 9.3 9.3 100 LegendMM 2 1 LegendMM 101.56     LegendNANA
21:00 9.1 9.1 100 LegendMM 17 5 LegendMM 101.59     LegendNANA
22:00 8.3 8.3 100 LegendMM 18 4 LegendMM 101.63     LegendNANA
23:00 8.2 8.2 100 LegendMM 3 4 LegendMM 101.66     LegendNANA

Notes on Data Quality.

Legend

  • E = Estimated
  • M = Missing
  • NA = Not Available*
  • [empty] = Indicates an unobserved value
Date modified: